CW0297 Weather Reports


time (UTC)temp
F
wind
direction
speed
knots
gust
knots
rain 1hr
in
rain 24hr
in
rain mn
in
humidity
%
barometer
mb
20260507161555 81 295 0.0 3.5 0.00 0.00 0.00 22 1014.3
20260507160056 80 207 0.0 2.6 0.00 0.00 0.00 22 1014.6
20260507154559 78 167 1.7 3.5 0.00 0.00 0.00 24 1014.6
20260507153054 77 197 0.9 3.5 0.00 0.00 0.00 26 1014.6
20260507151549 77 193 1.7 3.5 0.00 0.00 0.00 28 1014.5
20260507150053 76 198 0.9 2.6 0.00 0.00 0.00 27 1014.6
20260507144551 75 126 0.9 2.6 0.00 0.00 0.00 28 1014.6
20260507143055 74 226 0.9 2.6 0.00 0.00 0.00 28 1014.5
20260507141552 73 80 0.9 4.3 0.00 0.00 0.00 28 1014.5
20260507140053 71 77 2.6 4.3 0.00 0.00 0.00 30 1014.3
20260507134550 69 30 1.7 5.2 0.00 0.00 0.00 32 1014.3
20260507133051 68 59 1.7 4.3 0.00 0.00 0.00 32 1014.1
20260507131608 67 86 0.9 5.2 0.00 0.00 0.00 32 1013.9
20260507130049 66 353 4.3 7.0 0.00 0.00 0.00 33 1013.7
20260507124547 66 344 3.5 6.1 0.00 0.00 0.00 33 1013.9
20260507123046 66 356 2.6 5.2 0.00 0.00 0.00 32 1013.8
20260507121549 66 65 1.7 4.3 0.00 0.00 0.00 33 1013.8
20260507120054 66 8 0.0 2.6 0.00 0.00 0.00 33 1013.7
20260507114549 67 16 2.6 6.1 0.00 0.00 0.00 32 1013.7
20260507113046 66 6 0.0 3.5 0.00 0.00 0.00 33 1013.8
20260507111556 66 6 1.7 5.2 0.00 0.00 0.00 32 1013.8
20260507110050 67 359 1.7 3.5 0.00 0.00 0.00 32 1013.8
20260507104548 67 23 1.7 4.3 0.00 0.00 0.00 32 1014.0
20260507103047 66 8 2.6 5.2 0.00 0.00 0.00 33 1014.1
20260507101549 66 18 0.9 1.7 0.00 0.00 0.00 33 1014.2
20260507100047 66 2 0.9 1.7 0.00 0.00 0.00 33 1014.2
20260507094551 67 0 0.0 1.7 0.00 0.00 0.00 33 1014.5
20260507093052 67 0 0.9 2.6 0.00 0.00 0.00 34 1014.5
20260507091552 67 8 0.0 1.7 0.00 0.00 0.00 34 1014.6
20260507090049 67 0 0.0 0.9 0.00 0.00 0.00 34 1014.6
20260507084549 68 0 0.0 0.9 0.00 0.00 0.00 33 1014.7
20260507083050 68 0 0.0 1.7 0.00 0.00 0.00 32 1014.7
20260507081550 68 11 0.0 0.9 0.00 0.00 0.00 32 1014.9
20260507080105 69 44 0.0 0.9 0.00 0.00 0.00 31 1014.9
20260507074551 70 49 0.0 1.7 0.00 0.00 0.00 31 1015.0
20260507073050 69 0 0.0 0.9 0.00 0.00 0.00 33 1014.8
20260507071603 69 0 0.0 0.0 0.00 0.00 0.00 33 1014.7
20260507070052 70 0 0.0 0.9 0.00 0.00 0.00 32 1014.8
20260507064550 70 23 0.9 1.7 0.00 0.00 0.00 32 1014.7
20260507063047 71 24 0.0 0.9 0.00 0.00 0.00 32 1014.8
20260507061546 71 0 0.0 0.9 0.00 0.00 0.00 31 1014.7
20260507060045 71 0 0.0 0.9 0.00 0.00 0.00 30 1014.8
20260507054547 72 0 0.0 0.9 0.00 0.00 0.00 30 1014.7
20260507053114 72 281 0.0 0.9 0.00 0.00 0.00 29 1014.7
20260507051600 72 0 0.0 0.0 0.00 0.00 0.00 29 1014.7
20260507050047 73 0 0.0 0.9 0.00 0.00 0.00 28 1014.5
20260507044547 74 0 0.0 0.9 0.00 0.00 0.00 27 1014.4
20260507043054 75 0 0.0 0.0 0.00 0.00 0.00 25 1014.3
20260507041557 75 0 0.0 0.9 0.00 0.00 0.00 24 1014.1
20260507040046 76 0 0.0 0.9 0.00 0.00 0.00 24 1014.0
20260507034546 76 264 0.0 0.9 0.00 0.00 0.00 23 1013.9
20260507033052 77 0 0.0 0.9 0.00 0.00 0.00 22 1013.8
20260507031554 78 248 0.0 0.9 0.00 0.00 0.00 22 1013.6
20260507030051 78 272 0.0 2.6 0.00 0.00 0.00 22 1013.4
20260507024559 79 284 0.9 2.6 0.00 0.00 0.00 21 1013.2
20260507023051 79 0 1.7 3.5 0.00 0.00 0.00 21 1013.1
20260507021551 80 269 1.7 4.3 0.00 0.00 0.00 20 1013.0
20260507020049 81 263 2.6 5.2 0.00 0.00 0.00 20 1012.9
20260507014601 82 272 2.6 6.1 0.00 0.00 0.00 19 1012.8
20260507013051 82 259 0.9 5.2 0.00 0.00 0.00 19 1012.8
20260507011549 83 291 1.7 4.3 0.00 0.00 0.00 19 1012.9
20260507010059 83 317 2.6 6.1 0.00 0.00 0.00 19 1012.8
20260507004601 83 243 0.9 3.5 0.00 0.00 0.00 19 1012.7
20260507003049 84 302 3.5 6.1 0.00 0.00 0.00 19 1012.7
20260507001550 84 295 1.7 6.1 0.00 0.00 0.00 19 1012.7
20260507000051 83 266 2.6 6.1 0.00 0.00 0.00 19 1012.7
20260506234550 83 240 1.7 7.0 0.00 0.00 0.00 20 1012.7
20260506233052 83 122 2.6 9.6 0.00 0.00 0.00 20 1012.8
20260506231553 83 276 2.6 7.0 0.00 0.00 0.00 20 1012.8
20260506230049 83 276 2.6 5.2 0.00 0.00 0.00 20 1012.9
20260506224543 82 254 4.3 8.7 0.00 0.00 0.00 20 1013.1
20260506223044 82 13 2.6 5.2 0.00 0.00 0.00 20 1013.4
20260506221552 81 295 2.6 8.7 0.00 0.00 0.00 21 1013.6
20260506220052 82 269 3.5 6.1 0.00 0.00 0.00 21 1013.8
20260506214551 81 271 2.6 10.4 0.00 0.00 0.00 21 1014.0
20260506213042 80 347 2.6 9.6 0.00 0.00 0.00 22 1014.3
20260506211550 80 198 1.7 7.8 0.00 0.00 0.00 21 1014.5
20260506210048 80 255 3.5 8.7 0.00 0.00 0.00 21 1014.7
20260506204552 81 176 4.3 9.6 0.00 0.00 0.00 22 1015.0
20260506203052 81 307 0.9 7.0 0.00 0.00 0.00 22 1015.2
20260506201549 79 353 1.7 9.6 0.00 0.00 0.00 23 1015.3
20260506200100 80 217 1.7 6.1 0.00 0.00 0.00 22 1015.4
20260506194551 80 224 2.6 7.0 0.00 0.00 0.00 22 1015.5
20260506193050 79 313 0.9 7.8 0.00 0.00 0.00 23 1015.7
20260506191559 78 227 2.6 7.0 0.00 0.00 0.00 23 1015.8
20260506190046 79 232 0.9 3.5 0.00 0.00 0.00 24 1016.1
20260506184546 77 237 2.6 8.7 0.00 0.00 0.00 25 1016.3
20260506183053 77 91 1.7 7.0 0.00 0.00 0.00 25 1016.5
20260506181559 76 207 1.7 7.8 0.00 0.00 0.00 26 1016.6
20260506180113 76 265 0.9 6.1 0.00 0.00 0.00 28 1016.7
20260506174547 74 87 1.7 7.0 0.00 0.00 0.00 29 1016.8
20260506173109 74 261 0.0 8.7 0.00 0.00 0.00 29 1016.8
20260506171549 73 254 3.5 7.0 0.00 0.00 0.00 29 1016.8
20260506170050 74 224 0.9 6.1 0.00 0.00 0.00 29 1016.7
20260506164548 72 200 0.9 6.1 0.00 0.00 0.00 31 1016.8
20260506163052 72 259 0.9 3.5 0.00 0.00 0.00 31 1016.7